Total_Precipitation_Accumulation
0.37 0.35 0.45 0.67 0.78 0.76 0.76 0.82 1.08 1.11 1.04 1.00 0.97 0.95 0.90 0.91 0.90 0.82 0.76 0.75 0.79 0.84 0.86 0.84 0.84 0.93 0.99 1.09 1.22 1.39 1.55 1.55 1.44 1.26 1.13 1.07 1.02 0.95 0.92 0.93 0.95 1.04 1.09 1.10
0.28 0.25 0.33 0.49 0.59 0.61 0.59 0.59 0.69 0.78 0.80 0.69 0.65 0.67 0.67 0.68 0.64 0.60 0.56 0.52 0.49 0.50 0.50 0.49 0.47 0.49 0.52 0.64 0.82 1.07 1.35 1.38 1.21 1.07 0.92 0.85 0.87 0.90 0.91 0.89 0.93 0.97 0.92 0.95
0.42 0.33 0.34 0.57 0.57 0.52 0.52 0.44 0.48 0.58 0.58 0.51 0.53 0.60 0.61 0.66 0.66 0.52 0.41 0.39 0.38 0.36 0.35 0.35 0.35 0.35 0.40 0.49 0.63 0.82 0.95 0.97 0.90 0.82 0.81 0.86 0.89 0.85 0.86 0.89 0.90 0.92 0.89 0.88
0.46 0.47 0.71 0.87 0.72 0.59 0.56 0.38 0.33 0.37 0.38 0.40 0.51 0.55 0.55 0.52 0.51 0.50 0.39 0.30 0.28 0.28 0.29 0.33 0.34 0.39 0.44 0.51 0.56 0.61 0.66 0.70 0.68 0.68 0.71 0.78 0.82 0.80 0.86 0.91 0.87 0.88 0.94 0.94
0.57 0.66 0.80 0.81 0.68 0.68 0.67 0.53 0.32 0.33 0.32 0.29 0.29 0.31 0.32 0.31 0.29 0.28 0.26 0.22 0.20 0.19 0.20 0.24 0.24 0.26 0.28 0.31 0.33 0.36 0.36 0.39 0.44 0.48 0.51 0.54 0.56 0.65 0.78 0.86 0.89 0.93 0.98 0.98
0.63 0.74 0.86 0.65 0.40 0.41 0.58 0.73 0.29 0.24 0.25 0.21 0.19 0.25 0.25 0.25 0.25 0.22 0.20 0.22 0.21 0.18 0.18 0.20 0.22 0.24 0.22 0.22 0.24 0.25 0.25 0.27 0.30 0.35 0.38 0.41 0.47 0.52 0.61 0.64 0.72 0.85 0.89 0.90
0.58 0.78 0.92 0.64 0.42 0.40 0.70 0.73 0.26 0.19 0.19 0.18 0.18 0.18 0.17 0.20 0.22 0.20 0.19 0.20 0.22 0.21 0.19 0.20 0.24 0.25 0.25 0.24 0.25 0.28 0.30 0.31 0.32 0.33 0.35 0.40 0.45 0.49 0.53 0.58 0.67 0.74 0.79 0.83
0.68 1.01 1.13 0.81 0.60 0.60 0.55 0.29 0.18 0.14 0.14 0.16 0.17 0.15 0.16 0.18 0.19 0.17 0.17 0.18 0.20 0.20 0.22 0.23 0.24 0.25 0.25 0.25 0.28 0.30 0.32 0.33 0.35 0.36 0.39 0.42 0.47 0.52 0.56 0.60 0.62 0.67 0.71 0.75
0.65 0.89 0.84 0.69 0.57 0.45 0.36 0.26 0.17 0.14 0.14 0.18 0.19 0.18 0.20 0.21 0.18 0.18 0.17 0.16 0.17 0.19 0.19 0.20 0.21 0.21 0.22 0.26 0.29 0.31 0.33 0.34 0.37 0.38 0.39 0.40 0.45 0.52 0.56 0.59 0.61 0.64 0.68 0.75
0.40 0.45 0.41 0.37 0.35 0.28 0.24 0.21 0.17 0.17 0.20 0.22 0.24 0.23 0.21 0.21 0.21 0.19 0.18 0.16 0.15 0.18 0.20 0.21 0.22 0.22 0.26 0.27 0.26 0.28 0.33 0.36 0.38 0.38 0.40 0.43 0.46 0.51 0.55 0.58 0.62 0.65 0.71 0.75
0.34 0.30 0.27 0.24 0.25 0.23 0.18 0.15 0.15 0.18 0.22 0.23 0.24 0.24 0.21 0.21 0.23 0.21 0.19 0.19 0.20 0.22 0.23 0.23 0.24 0.26 0.30 0.33 0.30 0.28 0.31 0.34 0.35 0.36 0.41 0.44 0.46 0.49 0.50 0.55 0.65 0.73 0.76 0.79
0.35 0.25 0.26 0.26 0.23 0.18 0.17 0.15 0.14 0.15 0.17 0.18 0.20 0.23 0.23 0.21 0.22 0.24 0.24 0.24 0.25 0.25 0.26 0.26 0.26 0.29 0.32 0.36 0.38 0.37 0.36 0.34 0.33 0.36 0.39 0.42 0.44 0.45 0.49 0.52 0.61 0.66 0.67 0.68
0.22 0.19 0.18 0.18 0.18 0.17 0.16 0.16 0.15 0.16 0.16 0.16 0.18 0.20 0.23 0.22 0.21 0.22 0.25 0.26 0.27 0.28 0.28 0.26 0.25 0.25 0.26 0.31 0.34 0.35 0.37 0.39 0.39 0.39 0.40 0.43 0.43 0.42 0.48 0.49 0.51 0.55 0.58 0.61
0.14 0.15 0.17 0.16 0.15 0.15 0.16 0.17 0.16 0.15 0.15 0.16 0.17 0.19 0.19 0.19 0.18 0.19 0.24 0.26 0.28 0.28 0.27 0.27 0.26 0.26 0.26 0.28 0.33 0.37 0.38 0.40 0.43 0.44 0.45 0.46 0.51 0.54 0.55 0.58 0.59 0.54 0.52 0.54
0.13 0.14 0.15 0.16 0.16 0.16 0.17 0.18 0.19 0.17 0.17 0.19 0.20 0.21 0.20 0.20 0.21 0.22 0.24 0.25 0.27 0.27 0.29 0.31 0.28 0.28 0.29 0.30 0.32 0.33 0.37 0.42 0.46 0.51 0.55 0.53 0.55 0.61 0.62 0.55 0.52 0.52 0.52 0.53
0.15 0.16 0.16 0.18 0.21 0.21 0.19 0.19 0.20 0.19 0.19 0.19 0.22 0.26 0.27 0.25 0.24 0.22 0.23 0.25 0.28 0.30 0.31 0.33 0.32 0.33 0.32 0.32 0.32 0.33 0.36 0.45 0.48 0.50 0.53 0.53 0.54 0.58 0.60 0.58 0.58 0.61 0.62 0.65
0.18 0.19 0.21 0.24 0.25 0.24 0.23 0.24 0.23 0.22 0.23 0.22 0.24 0.26 0.28 0.28 0.26 0.26 0.26 0.27 0.29 0.31 0.33 0.36 0.36 0.36 0.36 0.35 0.36 0.38 0.38 0.41 0.46 0.49 0.51 0.54 0.54 0.58 0.61 0.61 0.63 0.66 0.66 0.71
0.20 0.20 0.21 0.25 0.28 0.27 0.24 0.24 0.24 0.23 0.24 0.25 0.27 0.28 0.31 0.32 0.33 0.33 0.31 0.30 0.31 0.36 0.40 0.42 0.41 0.38 0.36 0.36 0.38 0.40 0.40 0.42 0.44 0.49 0.52 0.55 0.58 0.62 0.68 0.67 0.67 0.70 0.69 0.71
0.23 0.23 0.23 0.25 0.27 0.29 0.28 0.27 0.25 0.25 0.26 0.25 0.27 0.29 0.30 0.30 0.31 0.32 0.31 0.32 0.34 0.38 0.41 0.41 0.43 0.37 0.35 0.38 0.43 0.45 0.47 0.49 0.51 0.53 0.55 0.58 0.61 0.63 0.69 0.69 0.69 0.72 0.75 0.73
0.26 0.25 0.24 0.24 0.25 0.28 0.30 0.29 0.27 0.27 0.29 0.29 0.28 0.28 0.28 0.27 0.27 0.29 0.31 0.35 0.37 0.38 0.36 0.39 0.39 0.39 0.40 0.42 0.46 0.47 0.52 0.57 0.62 0.64 0.66 0.67 0.68 0.71 0.74 0.72 0.74 0.77 0.79 0.79
0.23 0.22 0.22 0.23 0.24 0.26 0.28 0.30 0.29 0.28 0.28 0.29 0.29 0.30 0.30 0.28 0.27 0.28 0.32 0.39 0.40 0.36 0.33 0.38 0.35 0.35 0.41 0.48 0.52 0.51 0.54 0.58 0.62 0.66 0.68 0.70 0.72 0.73 0.76 0.75 0.76 0.79 0.81 0.81
0.22 0.20 0.19 0.19 0.20 0.22 0.25 0.26 0.26 0.24 0.25 0.27 0.28 0.29 0.31 0.33 0.31 0.32 0.36 0.41 0.43 0.45 0.39 0.36 0.34 0.40 0.51 0.55 0.48 0.49 0.52 0.58 0.62 0.67 0.69 0.73 0.76 0.75 0.77 0.81 0.82 0.81 0.83 0.87
0.25 0.23 0.21 0.21 0.21 0.22 0.26 0.28 0.26 0.25 0.25 0.25 0.26 0.29 0.35 0.41 0.42 0.43 0.44 0.41 0.40 0.47 0.45 0.42 0.44 0.53 0.62 0.53 0.47 0.48 0.51 0.55 0.58 0.61 0.68 0.77 0.81 0.81 0.82 0.83 0.84 0.84 0.86 0.91
0.28 0.26 0.24 0.24 0.25 0.28 0.32 0.33 0.32 0.30 0.29 0.30 0.29 0.29 0.30 0.36 0.41 0.42 0.43 0.49 0.51 0.51 0.46 0.49 0.55 0.60 0.62 0.52 0.51 0.53 0.55 0.56 0.58 0.59 0.64 0.69 0.72 0.75 0.80 0.85 0.90 0.91 0.89 0.89
0.29 0.27 0.27 0.27 0.31 0.35 0.34 0.34 0.35 0.33 0.34 0.36 0.35 0.32 0.30 0.33 0.39 0.42 0.39 0.42 0.52 0.56 0.51 0.55 0.62 0.63 0.56 0.53 0.55 0.56 0.59 0.63 0.67 0.68 0.68 0.67 0.69 0.75 0.81 0.85 0.91 0.96 0.98 0.97
0.31 0.30 0.32 0.36 0.38 0.36 0.36 0.39 0.39 0.37 0.36 0.36 0.36 0.33 0.31 0.32 0.33 0.35 0.36 0.39 0.45 0.57 0.60 0.60 0.59 0.60 0.58 0.60 0.62 0.62 0.63 0.65 0.69 0.70 0.67 0.69 0.73 0.78 0.86 0.91 0.92 0.98 1.00 0.98
0.35 0.35 0.36 0.35 0.34 0.35 0.38 0.42 0.42 0.40 0.39 0.41 0.40 0.36 0.35 0.37 0.39 0.41 0.42 0.45 0.50 0.55 0.63 0.69 0.66 0.67 0.68 0.68 0.69 0.69 0.70 0.71 0.73 0.75 0.74 0.75 0.77 0.79 0.84 0.90 0.95 1.00 1.03 1.03